�������l�o���
Date,Time,MP-1(��Sv/h),MP-2(��Sv/h),MP-3(��Sv/h),MP-4(��Sv/h),MP-5(��Sv/h),MP-6(��Sv/h),MP-7(��Sv/h),MP-8(��Sv/h),����,����(m/s),���J
2020/06/24,00:00,0.673,0.962,0.622,1.176,0.844,0.392,0.677,0.635,��쓌,6.4,��
2020/06/24,00:10,0.674,0.963,0.623,1.177,0.845,0.393,0.677,0.634,��쓌,5.9,��
2020/06/24,00:20,0.674,0.962,0.624,1.177,0.842,0.391,0.677,0.633,��쓌,5.2,��
2020/06/24,00:30,0.676,0.962,0.622,1.177,0.843,0.392,0.677,0.634,��쓌,4.4,��
2020/06/24,00:40,0.675,0.964,0.623,1.177,0.842,0.390,0.677,0.634,��쓌,5.0,��
2020/06/24,00:50,0.675,0.964,0.623,1.175,0.840,0.392,0.678,0.634,��쓌,4.5,��
2020/06/24,01:00,0.676,0.965,0.623,1.176,0.844,0.393,0.677,0.634,��쓌,5.1,��
2020/06/24,01:10,0.676,0.965,0.624,1.177,0.843,0.392,0.678,0.634,��쓌,4.5,��
2020/06/24,01:20,0.676,0.964,0.624,1.178,0.843,0.393,0.677,0.634,��쓌,5.1,��
2020/06/24,01:30,0.676,0.964,0.623,1.178,0.843,0.392,0.677,0.636,��쓌,3.7,��
2020/06/24,01:40,0.675,0.964,0.622,1.177,0.844,0.392,0.677,0.636,��쓌,3.7,��
2020/06/24,01:50,0.675,0.966,0.623,1.178,0.844,0.394,0.676,0.634,��쓌,3.5,��
2020/06/24,02:00,0.675,0.966,0.623,1.177,0.845,0.393,0.678,0.636,��쓌,2.6,��
2020/06/24,02:10,0.676,0.964,0.622,1.178,0.846,0.393,0.677,0.636,�쓌,1.7,��
2020/06/24,02:20,0.675,0.966,0.623,1.176,0.844,0.393,0.676,0.636,�쓌,1.7,��
2020/06/24,02:30,0.676,0.964,0.624,1.179,0.845,0.394,0.678,0.637,�쓌,2.0,��
2020/06/24,02:40,0.675,0.966,0.622,1.178,0.844,0.394,0.678,0.635,��쓌,2.0,��
2020/06/24,02:50,0.677,0.965,0.625,1.176,0.844,0.393,0.678,0.636,�쓌,1.9,��
2020/06/24,03:00,0.677,0.965,0.623,1.176,0.845,0.393,0.678,0.636,���쓌,1.5,��
2020/06/24,03:10,0.677,0.964,0.624,1.177,0.846,0.393,0.678,0.635,�쓌,1.2,��
2020/06/24,03:20,0.677,0.966,0.623,1.174,0.849,0.392,0.676,0.635,�쓌,1.4,��
2020/06/24,03:30,0.677,0.965,0.623,1.177,0.845,0.394,0.678,0.635,��쓌,0.9,��
2020/06/24,03:40,0.676,0.962,0.624,1.177,0.846,0.393,0.677,0.636,�쓌,0.6,��
2020/06/24,03:50,0.676,0.966,0.624,1.178,0.847,0.394,0.678,0.636,���쓌,1.5,�L
2020/06/24,04:00,0.677,0.965,0.624,1.176,0.845,0.392,0.677,0.635,���쓌,2.3,��
2020/06/24,04:10,0.676,0.966,0.621,1.175,0.846,0.391,0.678,0.634,���쓌,2.8,�L
2020/06/24,04:20,0.676,0.964,0.622,1.179,0.847,0.393,0.676,0.635,���쓌,1.7,��
2020/06/24,04:30,0.676,0.964,0.623,1.179,0.846,0.393,0.677,0.635,�쓌,1.7,��
2020/06/24,04:40,0.676,0.967,0.625,1.179,0.844,0.393,0.678,0.636,���쓌,2.5,��
2020/06/24,04:50,0.677,0.964,0.622,1.180,0.846,0.391,0.677,0.636,���쓌,2.3,�L
2020/06/24,05:00,0.677,0.964,0.623,1.175,0.844,0.391,0.678,0.635,���쓌,0.9,�L
2020/06/24,05:10,0.676,0.964,0.624,1.178,0.844,0.392,0.678,0.635,���쓌,0.9,�L
2020/06/24,05:20,0.677,0.964,0.622,1.176,0.845,0.391,0.677,0.634,-,CALM,�L
2020/06/24,05:30,0.677,0.966,0.623,1.176,0.848,0.393,0.677,0.636,�쓌,0.6,�L
2020/06/24,05:40,0.677,0.964,0.622,1.178,0.847,0.393,0.677,0.635,-,CALM,�L
2020/06/24,05:50,0.676,0.965,0.622,1.175,0.846,0.393,0.676,0.636,-,CALM,��
2020/06/24,06:00,0.676,0.964,0.621,1.177,0.848,0.392,0.676,0.635,�k�k��,0.8,�L
2020/06/24,06:10,0.676,0.963,0.624,1.177,0.848,0.392,0.678,0.634,�k��,0.8,�L
2020/06/24,06:20,0.677,0.962,0.623,1.177,0.847,0.392,0.677,0.636,-,CALM,�L
2020/06/24,06:30,0.676,0.962,0.622,1.177,0.846,0.393,0.678,0.636,���k��,0.6,�L
2020/06/24,06:40,0.677,0.963,0.624,1.176,0.846,0.390,0.676,0.634,��,0.8,��
2020/06/24,06:50,0.674,0.961,0.623,1.177,0.845,0.392,0.677,0.636,-,CALM,�L
2020/06/24,07:00,0.675,0.961,0.622,1.177,0.845,0.392,0.677,0.635,�k��,0.6,�L
2020/06/24,07:10,0.674,0.960,0.622,1.177,0.846,0.391,0.676,0.636,�k,1.1,�L
2020/06/24,07:20,0.676,0.958,0.621,1.175,0.846,0.391,0.677,0.635,���k��,0.6,�L
2020/06/24,07:30,0.675,0.961,0.621,1.178,0.847,0.392,0.676,0.635,�k��,0.9,�L
2020/06/24,07:40,0.675,0.959,0.620,1.177,0.845,0.392,0.677,0.635,�k��,1.7,�L
2020/06/24,07:50,0.675,0.960,0.623,1.175,0.846,0.392,0.675,0.634,�k��,1.5,�L
2020/06/24,08:00,0.673,0.961,0.622,1.176,0.847,0.392,0.677,0.633,�k�k��,1.4,�L
2020/06/24,08:10,0.674,0.958,0.623,1.176,0.845,0.391,0.675,0.634,�k�k��,1.5,�L
2020/06/24,08:20,0.675,0.957,0.621,1.175,0.844,0.391,0.674,0.633,�k�k��,1.4,�L
2020/06/24,08:30,0.671,0.952,0.624,1.174,0.842,0.392,0.676,0.635,�k,2.2,�L
2020/06/24,08:40,0.670,0.954,0.620,1.174,0.845,0.390,0.674,0.632,�k�k��,2.2,�L
2020/06/24,08:50,0.672,0.950,0.619,1.177,0.846,0.391,0.673,0.635,�k�k��,1.9,�L
2020/06/24,09:00,0.670,0.950,0.621,1.177,0.843,0.390,0.675,0.634,�k��,1.7,�L
2020/06/24,09:10,0.673,0.951,0.621,1.177,0.844,0.388,0.676,0.633,�k��,1.2,��
2020/06/24,09:20,0.671,0.949,0.622,1.177,0.844,0.390,0.675,0.633,�k��,1.2,��
2020/06/24,09:30,0.674,0.950,0.620,1.176,0.844,0.391,0.676,0.634,�k,1.3,��
2020/06/24,09:40,0.671,0.950,0.622,1.176,0.845,0.389,0.675,0.634,�k�k��,1.7,��
2020/06/24,09:50,0.671,0.949,0.622,1.176,0.844,0.391,0.677,0.633,�k,1.4,��
2020/06/24,10:00,0.672,0.944,0.619,1.175,0.842,0.389,0.673,0.633,�k,2.5,��
2020/06/24,10:10,0.671,0.948,0.621,1.176,0.843,0.390,0.677,0.634,�k�k��,2.3,��
2020/06/24,10:20,0.670,0.950,0.618,1.175,0.843,0.390,0.677,0.633,�k��,2.1,�L
2020/06/24,10:30,0.672,0.945,0.620,1.178,0.842,0.387,0.676,0.634,�k�k��,2.2,��
2020/06/24,10:40,0.673,0.953,0.621,1.176,0.840,0.387,0.677,0.634,�k�k��,2.0,��
2020/06/24,10:50,0.673,0.949,0.618,1.176,0.841,0.387,0.677,0.633,�k�k��,2.2,��
2020/06/24,11:00,0.673,0.949,0.619,1.173,0.843,0.388,0.677,0.634,�k�k��,2.6,��
2020/06/24,11:10,0.672,0.951,0.619,1.178,0.843,0.391,0.677,0.631,�k�k��,2.3,��
2020/06/24,11:20,0.671,0.952,0.618,1.178,0.845,0.387,0.676,0.633,�k,2.3,��
2020/06/24,11:30,0.674,0.950,0.620,1.177,0.844,0.388,0.677,0.633,�k�k��,2.2,��
2020/06/24,11:40,0.672,0.952,0.621,1.178,0.844,0.388,0.678,0.633,�k�k��,2.5,��
2020/06/24,11:50,0.673,0.953,0.619,1.176,0.844,0.389,0.678,0.633,�k�k��,2.8,��
2020/06/24,12:00,0.673,0.952,0.622,1.178,0.846,0.387,0.678,0.632,�k�k��,3.8,��
2020/06/24,12:10,0.674,0.955,0.621,1.179,0.844,0.388,0.677,0.633,�k�k��,3.0,��
2020/06/24,12:20,0.674,0.959,0.620,1.179,0.844,0.388,0.678,0.633,�k�k��,3.4,��
2020/06/24,12:30,0.676,0.959,0.620,1.176,0.846,0.388,0.677,0.633,�k�k��,3.3,��
2020/06/24,12:40,0.674,0.958,0.621,1.177,0.844,0.388,0.679,0.633,�k�k��,2.9,��
2020/06/24,12:50,0.675,0.958,0.620,1.179,0.845,0.388,0.678,0.633,�k�k��,3.0,��
2020/06/24,13:00,0.674,0.956,0.620,1.179,0.846,0.389,0.677,0.633,�k�k��,3.2,��
2020/06/24,13:10,0.675,0.959,0.620,1.178,0.843,0.388,0.679,0.632,�k�k��,3.2,��
2020/06/24,13:20,0.674,0.955,0.621,1.179,0.845,0.389,0.679,0.634,�k�k��,3.8,��
2020/06/24,13:30,0.674,0.955,0.620,1.180,0.846,0.389,0.678,0.633,�k�k��,4.2,�L
2020/06/24,13:40,0.673,0.953,0.621,1.179,0.848,0.388,0.680,0.633,�k�k��,4.0,�L
2020/06/24,13:50,0.675,0.954,0.621,1.181,0.846,0.388,0.678,0.633,�k�k��,3.8,��
2020/06/24,14:00,0.674,0.954,0.620,1.178,0.846,0.389,0.680,0.635,�k�k��,4.0,��
2020/06/24,14:10,0.675,0.956,0.622,1.179,0.846,0.388,0.679,0.633,�k�k��,4.0,��
2020/06/24,14:20,0.676,0.954,0.621,1.179,0.847,0.388,0.679,0.634,�k�k��,4.3,��
2020/06/24,14:30,0.675,0.957,0.621,1.182,0.847,0.388,0.679,0.633,�k��,4.4,��
2020/06/24,14:40,0.676,0.956,0.621,1.178,0.846,0.388,0.680,0.634,�k�k��,3.6,��
2020/06/24,14:50,0.674,0.956,0.621,1.179,0.846,0.388,0.679,0.635,�k�k��,4.3,��
2020/06/24,15:00,0.673,0.958,0.621,1.180,0.846,0.388,0.680,0.635,�k�k��,5.0,��
2020/06/24,15:10,0.679,0.960,0.621,1.179,0.846,0.389,0.679,0.634,�k�k��,5.1,��
2020/06/24,15:20,0.676,0.959,0.621,1.181,0.845,0.390,0.681,0.634,�k�k��,4.9,��
2020/06/24,15:30,0.676,0.960,0.621,1.180,0.847,0.389,0.680,0.633,�k�k��,4.6,��
2020/06/24,15:40,0.675,0.958,0.622,1.177,0.846,0.390,0.679,0.636,�k�k��,4.5,��
2020/06/24,15:50,0.676,0.960,0.622,1.179,0.846,0.388,0.679,0.634,�k�k��,4.6,��
2020/06/24,16:00,0.675,0.960,0.622,1.179,0.846,0.389,0.680,0.634,�k�k��,4.4,��
2020/06/24,16:10,0.676,0.960,0.621,1.180,0.844,0.387,0.680,0.633,�k��,4.1,��
2020/06/24,16:20,0.676,0.962,0.621,1.182,0.847,0.388,0.680,0.635,�k��,4.1,��
2020/06/24,16:30,0.676,0.961,0.624,1.180,0.846,0.388,0.678,0.633,�k�k��,4.0,��
2020/06/24,16:40,0.675,0.964,0.621,1.181,0.847,0.389,0.681,0.635,�k��,4.0,��
2020/06/24,16:50,0.675,0.961,0.620,1.180,0.847,0.387,0.679,0.635,�k��,3.6,��
2020/06/24,17:00,0.675,0.961,0.621,1.183,0.849,0.387,0.679,0.634,�k�k��,4.1,��
2020/06/24,17:10,0.677,0.961,0.622,1.180,0.848,0.389,0.679,0.635,�k�k��,3.9,��
2020/06/24,17:20,0.676,0.962,0.622,1.180,0.847,0.389,0.680,0.634,�k�k��,4.0,��
2020/06/24,17:30,0.676,0.961,0.624,1.181,0.846,0.391,0.680,0.636,�k�k��,4.4,��
2020/06/24,17:40,0.676,0.963,0.624,1.182,0.848,0.389,0.680,0.635,�k�k��,3.6,��
2020/06/24,17:50,0.675,0.961,0.624,1.181,0.849,0.388,0.679,0.637,�k�k��,3.2,��
2020/06/24,18:00,0.677,0.964,0.626,1.182,0.848,0.389,0.680,0.636,�k,3.2,��
2020/06/24,18:10,0.675,0.963,0.626,1.183,0.849,0.388,0.679,0.637,�k,3.0,��
2020/06/24,18:20,0.675,0.963,0.625,1.183,0.848,0.389,0.678,0.636,�k,2.6,��
2020/06/24,18:30,0.676,0.960,0.625,1.181,0.850,0.388,0.678,0.636,�k,2.9,�L
2020/06/24,18:40,0.676,0.961,0.625,1.183,0.851,0.390,0.679,0.636,�k,3.0,�L
2020/06/24,18:50,0.677,0.963,0.624,1.183,0.851,0.390,0.680,0.635,�k�k��,2.5,�L
2020/06/24,19:00,0.677,0.962,0.626,1.183,0.852,0.390,0.679,0.636,�k,3.0,�L
2020/06/24,19:10,0.676,0.966,0.624,1.184,0.850,0.392,0.681,0.635,�k,3.0,�L
2020/06/24,19:20,0.678,0.964,0.624,1.182,0.850,0.390,0.680,0.637,�k�k��,2.9,�L
2020/06/24,19:30,0.676,0.964,0.625,1.182,0.851,0.391,0.679,0.636,�k�k��,2.9,�L
2020/06/24,19:40,0.676,0.965,0.625,1.182,0.853,0.390,0.680,0.636,�k�k��,3.4,�L
2020/06/24,19:50,0.675,0.964,0.625,1.180,0.852,0.389,0.682,0.637,�k�k��,3.7,�L
2020/06/24,20:00,0.677,0.964,0.624,1.180,0.851,0.390,0.679,0.635,�k�k��,3.3,�L
2020/06/24,20:10,0.678,0.962,0.624,1.181,0.850,0.390,0.681,0.637,�k�k��,3.6,�L
2020/06/24,20:20,0.678,0.964,0.624,1.181,0.849,0.390,0.682,0.637,�k�k��,4.3,�L
2020/06/24,20:30,0.677,0.963,0.624,1.180,0.850,0.391,0.681,0.638,�k�k��,3.8,�L
2020/06/24,20:40,0.676,0.963,0.623,1.181,0.850,0.390,0.681,0.637,�k�k��,3.7,�L
2020/06/24,20:50,0.675,0.963,0.624,1.180,0.848,0.390,0.681,0.636,�k�k��,3.8,�L
2020/06/24,21:00,0.675,0.964,0.623,1.182,0.849,0.389,0.681,0.637,�k��,3.4,�L
2020/06/24,21:10,0.677,0.962,0.623,1.180,0.850,0.391,0.681,0.637,�k��,3.4,�L
2020/06/24,21:20,0.675,0.962,0.624,1.180,0.851,0.390,0.681,0.637,�k��,3.3,�L
2020/06/24,21:30,0.674,0.962,0.623,1.182,0.851,0.391,0.681,0.636,�k�k��,3.2,�L
2020/06/24,21:40,0.675,0.960,0.624,1.179,0.850,0.389,0.681,0.637,�k�k��,3.4,�L
2020/06/24,21:50,0.675,0.959,0.623,1.180,0.849,0.389,0.682,0.638,�k�k��,4.0,�L
2020/06/24,22:00,0.677,0.961,0.624,1.181,0.849,0.391,0.680,0.637,�k��,3.3,�L
2020/06/24,22:10,0.675,0.961,0.623,1.181,0.848,0.391,0.679,0.636,�k��,2.6,�L
2020/06/24,22:20,0.675,0.961,0.623,1.179,0.848,0.390,0.679,0.635,�k�k��,3.2,�L
2020/06/24,22:30,0.673,0.960,0.622,1.182,0.849,0.388,0.679,0.637,�k�k��,3.4,�L
2020/06/24,22:40,0.674,0.961,0.623,1.180,0.846,0.391,0.679,0.636,�k�k��,2.8,�L
2020/06/24,22:50,0.672,0.959,0.621,1.180,0.845,0.390,0.679,0.636,�k�k��,2.6,�L
2020/06/24,23:00,0.673,0.958,0.621,1.178,0.846,0.391,0.679,0.636,�k�k��,3.1,�L
2020/06/24,23:10,0.673,0.960,0.621,1.177,0.845,0.392,0.678,0.634,�k�k��,3.3,�L
2020/06/24,23:20,0.674,0.958,0.622,1.179,0.847,0.389,0.679,0.636,�k�k��,3.9,�L
2020/06/24,23:30,0.674,0.958,0.621,1.177,0.845,0.390,0.678,0.637,�k�k��,2.6,�L
2020/06/24,23:40,0.673,0.957,0.621,1.177,0.844,0.390,0.677,0.634,�k�k��,2.5,�L
2020/06/24,23:50,0.674,0.957,0.621,1.177,0.846,0.390,0.678,0.637,�k�k��,2.3,�L
